Station RTYC1 - 9414523 - Redwood City, CA Image indicating link to RSS feed of recent meteorological observations for station RTYC1


Conditions at RTYC1 as of
(7:00 am PDT)
1400 GMT on 04/16/2024:
     

Click on the graph icon in the table below to see a time series plot of the last five days of that observation.

5-day plot - Wind Direction Wind Direction (WDIR): SW ( 230 deg true )
5-day plot - Wind Speed Wind Speed (WSPD): 1.0 kts
5-day plot - Wind Gust Wind Gust (GST): 1.9 kts
5-day plot - Atmospheric Pressure Atmospheric Pressure (PRES):30.15 in
5-day plot - Pressure Tendency Pressure Tendency (PTDY):+0.01 in ( Rising )
5-day plot - Air Temperature Air Temperature (ATMP): 51.3 °F
5-day plot - Water Temperature Water Temperature (WTMP): 60.3 °F
5-day plot - Wind Speed at 10 Meters Wind Speed at 10 meters (WSPD10M): 1.9 kts
5-day plot - Wind Speed at 20 Meters Wind Speed at 20 meters (WSPD20M): 1.9 kts
5-day plot -  Wind Speed, Wind Gust and Atmospheric Pressure Combined plot of Wind Speed, Gust, and Air Pressure
NOS Water Level Observation Network Water Level
Previous observations
TIME
(PDT)
5-day plot - Wind Direction
WDIR
 
5-day plot - Wind Speed
WSPD
kts
5-day plot - Wind Gust
GST
kts
5-day plot - Wave Height
WVHT
ft
5-day plot - Dominant Wave Period
DPD
sec
5-day plot - Average Wave Period
APD
sec
5-day plot - Mean Wave Direction
MWD
 
5-day plot - Atmospheric Pressure
PRES
in
5-day plot - Pressure Tendency
PTDY
in
5-day plot - Air Temperature
ATMP
°F
5-day plot - Water Temperature
WTMP
°F
5-day plot - Dew Point
DEWP
°F
5-day plot - Salinity
SAL
psu
5-day plot - Visibility
VIS
nmi
5-day plot - Tide (above MLLW)
TIDE
ft
2024-04-16 06:54 am SW 1.0 1.9----30.15- 50.9 60.3----
2024-04-16 06:48 am S 1.0 1.0----30.14- 50.4 60.3----
2024-04-16 06:42 amSSW 1.0 1.9----30.14- 50.7 60.3----
2024-04-16 06:36 am SW 1.9 1.9----30.14- 50.9 60.3----
2024-04-16 06:30 am SW 1.9 1.9----30.14- 50.7 60.3----
2024-04-16 06:24 am SW 1.0 1.9----30.14- 50.7 60.3----
2024-04-16 06:18 am- 0.0 1.9----30.14- 50.7 60.3----
2024-04-16 06:12 amSSW 1.9 2.9----30.14- 50.5 60.3----
2024-04-16 06:06 amSSW 1.9 2.9----30.14- 50.7 60.3----
2024-04-16 06:00 amSSW 1.0 1.9----30.14-0.01 50.9 60.3----
2024-04-16 05:54 am S 1.0 1.0----30.13- 51.3 60.4----
2024-04-16 05:48 am- 0.0 0.0----30.14- 51.1 60.4----
2024-04-16 05:42 am- 0.0 1.9----30.14- 51.1 60.4----
2024-04-16 05:36 am S 1.9 1.9----30.14- 51.1 60.4----
2024-04-16 05:30 am S 1.0 1.9----30.13- 51.1 60.4----
2024-04-16 05:24 am SE 1.0 1.9----30.13- 51.4 60.4----
2024-04-16 05:18 am- 0.0 1.0----30.13- 50.5 60.4----
2024-04-16 05:12 am S 1.0 1.9----30.14- 50.5 60.4----
2024-04-16 05:06 am S 1.9 4.1----30.14- 50.7 60.4----
2024-04-16 05:00 am S 1.9 4.1----30.13-0.03 50.9 60.6----
2024-04-16 04:54 amSSE 1.9 4.1----30.13- 50.7 60.6----
2024-04-16 04:48 am S 2.9 5.1----30.13- 50.7 60.6----
2024-04-16 04:42 am S 2.9 5.1----30.13- 50.5 60.6----
2024-04-16 04:36 am S 4.1 5.1----30.13- 50.5 60.6----
2024-04-16 04:30 am S 4.1 5.1----30.14- 50.2 60.6----
2024-04-16 04:24 am S 4.1 5.1----30.14- 50.5 60.8----
2024-04-16 04:18 amSSE 2.9 4.1----30.14- 50.4 60.8----
2024-04-16 04:12 amSSE 1.9 4.1----30.14- 50.4 60.8----
2024-04-16 04:06 am S 4.1 5.1----30.14- 50.2 60.8----
2024-04-16 04:00 am S 2.9 5.1----30.14-0.01 50.4 60.8----
2024-04-16 03:54 am S 4.1 4.1----30.14- 50.2 60.8----
2024-04-16 03:48 am S 1.9 4.1----30.14- 50.4 61.0----
2024-04-16 03:42 am S 2.9 4.1----30.14- 50.2 61.0----
2024-04-16 03:36 am S 2.9 5.1----30.14- 50.4 61.0----
2024-04-16 03:30 amSSE 2.9 5.1----30.14- 50.5 61.0----
2024-04-16 03:24 am S 2.9 5.1----30.14- 50.5 61.0----
2024-04-16 03:18 am S 2.9 5.1----30.14- 50.5 61.0----
2024-04-16 03:12 am S 4.1 5.1----30.14- 50.7 61.0----
2024-04-16 03:06 am S 2.9 2.9----30.14- 51.8 61.0----
2024-04-16 03:00 am- 0.0 0.0----30.15-0.01 52.0 61.0----
2024-04-16 02:54 am- 0.0 0.0----30.15- 52.0 61.0----
2024-04-16 02:48 am- 0.0 1.0----30.15- 51.8 61.0----
2024-04-16 02:42 am- 0.0 1.9----30.15- 51.8 61.0----
2024-04-16 02:36 am N 1.0 2.9----30.15- 52.0 61.0----
2024-04-16 02:30 amWNW 1.9 2.9----30.16- 52.2 61.0----
2024-04-16 02:24 am NW 1.9 2.9----30.16- 52.0 61.2----
2024-04-16 02:18 amWNW 1.9 2.9----30.16- 52.0 61.2----
2024-04-16 02:12 am NW 1.9 5.1----30.16- 52.0 61.2----
2024-04-16 02:06 am NW 4.1 4.1----30.16- 52.2 61.2----
2024-04-16 02:00 am NW 4.1 5.1----30.16+0.00 52.2 61.2----
2024-04-16 01:54 am NW 2.9 4.1----30.16- 52.3 61.2----
2024-04-16 01:48 amWNW 1.9 2.9----30.16- 52.3 61.2----
2024-04-16 01:42 am W 1.9 2.9----30.16- 52.2 61.2----
2024-04-16 01:36 am W 2.9 4.1----30.15- 52.2 61.2----
2024-04-16 01:30 am SW 1.9 2.9----30.16- 52.7 61.2----
2024-04-16 01:24 am S 1.9 2.9----30.15- 52.3 61.2----
2024-04-16 01:18 am S 1.9 4.1----30.15- 52.3 61.2----
2024-04-16 01:12 amSSW 1.9 2.9----30.16- 52.5 61.2----
2024-04-16 01:06 am S 2.9 4.1----30.15- 52.2 61.2----
2024-04-16 01:00 am S 2.9 4.1----30.15-0.02 52.2 61.2----
2024-04-16 12:54 am S 4.1 5.1----30.15- 52.3 61.2----
2024-04-16 12:48 am S 2.9 4.1----30.15- 52.5 61.2----
2024-04-16 12:42 am S 2.9 4.1----30.15- 52.7 61.2----
2024-04-16 12:36 am S 1.9 4.1----30.16- 52.9 61.2----
2024-04-16 12:30 am S 2.9 4.1----30.16- 52.9 61.2----
2024-04-16 12:24 am S 4.1 5.1----30.16- 53.1 61.2----
2024-04-16 12:18 am S 4.1 5.1----30.16- 53.1 61.2----
2024-04-16 12:12 am S 4.1 5.1----30.16- 53.1 61.2----
2024-04-16 12:06 amSSE 4.1 4.1----30.16- 53.6 61.2----
2024-04-16 12:00 amSSE 2.9 2.9----30.16+0.00 53.8 61.3----
2024-04-15 11:54 pm SE 1.9 1.9----30.16- 54.0 61.3----
2024-04-15 11:48 pmSSE 1.9 2.9----30.16- 54.0 61.3----
2024-04-15 11:42 pm S 1.9 1.9----30.16- 54.0 61.3----
2024-04-15 11:36 pm- 0.0 1.9----30.16- 54.1 61.3----
2024-04-15 11:30 pm- 0.0 1.0----30.16- 54.0 61.3----
2024-04-15 11:24 pm- 0.0 1.0----30.16- 54.3 61.3----
2024-04-15 11:18 pmWNW 2.9 4.1----30.17- 54.5 61.3----
2024-04-15 11:12 pmWNW 1.9 1.9----30.17- 54.5 61.3----
2024-04-15 11:06 pmWNW 1.0 2.9----30.16- 54.5 61.2----
2024-04-15 11:00 pmNNW 1.9 2.9----30.16+0.02 54.5 61.2----
2024-04-15 10:54 pm NW 2.9 5.1----30.16- 54.5 61.2----
2024-04-15 10:48 pmWNW 4.1 5.1----30.17- 54.3 61.2----
2024-04-15 10:42 pm W 2.9 4.1----30.17- 54.3 61.2----
2024-04-15 10:36 pm W 1.9 4.1----30.17- 54.7 61.2----
2024-04-15 10:30 pm W 1.9 5.1----30.16- 54.5 61.2----
2024-04-15 10:24 pm W 2.9 7.0----30.17- 54.5 61.2----
2024-04-15 10:18 pm W 4.1 8.0----30.17- 54.5 61.2----
2024-04-15 10:12 pm W 6.0 8.0----30.17- 54.7 61.2----
2024-04-15 10:06 pmWNW 6.0 8.0----30.17- 54.7 61.2----
2024-04-15 10:00 pm W 6.0 8.9----30.18+0.04 54.9 61.2----
2024-04-15 09:54 pmWNW 6.0 8.9----30.17- 54.9 61.2----
2024-04-15 09:48 pmWNW 7.0 9.9----30.18- 54.9 61.2----
2024-04-15 09:42 pmWNW 6.0 9.9----30.17- 54.9 61.2----
2024-04-15 09:36 pmWNW 7.0 11.1----30.17- 55.0 61.2----
2024-04-15 09:30 pmWNW 7.0 9.9----30.17- 55.2 61.2----
2024-04-15 09:24 pmWNW 7.0 9.9----30.17- 55.2 61.2----
2024-04-15 09:18 pmWNW 7.0 9.9----30.17- 55.4 61.2----
2024-04-15 09:12 pmWNW 8.9 12.0----30.17- 55.2 61.2----
2024-04-15 09:06 pmWNW 8.9 13.0----30.17- 55.4 61.2----
2024-04-15 09:00 pmWNW 9.9 12.0----30.16+0.02 55.6 61.2----
2024-04-15 08:54 pmWNW 9.9 13.0----30.16- 55.9 61.2----
2024-04-15 08:48 pmWNW 11.1 13.0----30.16- 56.1 61.2----
2024-04-15 08:42 pmWNW 11.1 13.0----30.16- 55.9 61.2----
2024-04-15 08:36 pm NW 9.9 11.1----30.16- 56.1 61.3----
2024-04-15 08:30 pmWNW 9.9 12.0----30.15- 56.5 61.3----
2024-04-15 08:24 pm W 6.0 9.9----30.15- 56.7 61.3----
2024-04-15 08:18 pmWNW 8.0 9.9----30.14- 56.8 61.3----
2024-04-15 08:12 pmWNW 7.0 9.9----30.14- 56.8 61.3----
2024-04-15 08:06 pmWNW 7.0 8.9----30.14- 57.2 61.3----
2024-04-15 08:00 pm W 7.0 9.9----30.14+0.00 57.6 61.3----
2024-04-15 07:54 pm W 6.0 9.9----30.14- 57.7 61.3----
2024-04-15 07:48 pm W 7.0 11.1----30.15- 57.7 61.3----
2024-04-15 07:42 pm W 7.0 11.1----30.15- 58.3 61.3----
2024-04-15 07:36 pmWNW 7.0 9.9----30.14- 58.5 61.3----
2024-04-15 07:30 pm W 6.0 8.9----30.14-- 61.3----
2024-04-15 07:24 pm W 7.0 9.9----30.14-- 61.3----
2024-04-15 07:18 pm W 5.1 8.9----30.14- 59.5 61.3----
2024-04-15 07:12 pm W 5.1 8.9----30.14- 59.9 61.3----
2024-04-15 07:06 pm W 6.0 9.9----30.14- 59.9 61.3----
2024-04-15 07:00 pm W 5.1 9.9----30.14-0.03 60.3 61.3----
2024-04-15 06:54 pm W 4.1 8.0----30.14- 60.8 61.3----
2024-04-15 06:48 pm W 5.1 9.9----30.14- 60.6 61.3----
2024-04-15 06:42 pm W 6.0 9.9----30.14- 60.8 61.0----
2024-04-15 06:36 pm W 6.0 9.9----30.14- 61.0 61.0----
2024-04-15 06:30 pm W 4.1 11.1----30.14- 61.5 61.0----
2024-04-15 06:24 pm W 5.1 11.1----30.15- 61.5 61.0----
2024-04-15 06:18 pm W 5.1 8.9----30.15- 61.7 61.0----
2024-04-15 06:12 pm W 4.1 9.9----30.15- 61.9 61.0----
2024-04-15 06:06 pm W 6.0 12.0----30.15- 62.1 61.0----
2024-04-15 06:00 pmWNW 6.0 11.1----30.15-0.03- 60.8----
2024-04-15 05:54 pm W 5.1 9.9----30.14-- 60.8----
2024-04-15 05:48 pm W 6.0 11.1----30.14- 62.2 60.8----
2024-04-15 05:42 pm W 7.0 11.1----30.14- 62.4 60.8----
2024-04-15 05:36 pm W 8.9 12.0----30.15- 62.4 60.8----
2024-04-15 05:30 pm NW 8.9 12.0----30.15- 61.9 60.8----
2024-04-15 05:24 pm NW 9.9 14.0----30.15- 61.9 60.8----
2024-04-15 05:18 pmNNW 11.1 14.0----30.15-- 60.8----
2024-04-15 05:12 pmNNW 12.0 15.0----30.15-- 60.6----
2024-04-15 05:06 pmNNW 11.1 13.0----30.15-- 60.6----
2024-04-15 05:00 pmNNW 8.9 12.0----30.15-0.04 61.9 60.6----
2024-04-15 04:54 pmNNW 8.9 13.0----30.15- 62.1 60.6----
2024-04-15 04:48 pmNNW 8.0 12.0----30.16- 62.1 60.6----
2024-04-15 04:42 pm NW 9.9 13.0----30.16- 61.7 60.6----
2024-04-15 04:36 pmNNW 11.1 15.9----30.16- 61.3 60.6----
2024-04-15 04:30 pmNNW 11.1 17.1----30.16- 61.2 60.6----
2024-04-15 04:24 pmNNW 12.0 15.0----30.16- 61.2 60.6----
2024-04-15 04:18 pmNNW 9.9 14.0----30.16- 60.8 60.6----
2024-04-15 04:12 pmNNW 9.9 13.0----30.17- 60.8 60.6----
2024-04-15 04:06 pmNNW 11.1 17.1----30.17- 60.3 60.8----
2024-04-15 04:00 pm N 8.9 12.0----30.17-0.04 60.4 60.8----
2024-04-15 03:54 pm N 8.0 11.1----30.17- 60.8 60.8----
2024-04-15 03:48 pm N 9.9 12.0----30.17- 60.8 60.8----
2024-04-15 03:42 pmNNW 9.9 13.0----30.17- 60.4 60.8----
2024-04-15 03:36 pm N 8.0 9.9----30.17- 60.8 61.0----
2024-04-15 03:30 pm N 8.0 11.1----30.17-- 61.0----
2024-04-15 03:06 pm N 5.1 9.9----30.18- 60.8 61.0----
2024-04-15 03:00 pmNNW 7.0 9.9----30.18-0.04 60.1 61.0----
2024-04-15 02:54 pmNNW 6.0 8.0----30.18- 60.1 61.0----
2024-04-15 02:42 pmNNW 6.0 8.9----30.19- 59.4 61.0----
2024-04-15 02:36 pm N 6.0 11.1----30.19- 59.4 60.8----
2024-04-15 02:30 pmNNW 8.0 9.9----30.19- 58.8 60.8----
2024-04-15 02:24 pm N 6.0 11.1----30.19- 59.0 60.8----
2024-04-15 02:18 pm N 5.1 8.0------ 59.0 60.8----
2024-04-15 02:12 pmNNW 4.1 8.0------ 59.0 60.8----
2024-04-15 02:06 pmNNW 5.1 8.9------ 58.6 60.6----
2024-04-15 02:00 pmNNE 6.0 9.9----30.19-0.03 59.0 60.6----
2024-04-15 01:54 pm N 4.1 7.0----30.19- 58.8 60.6----
2024-04-15 01:48 pm N 4.1 8.0----30.19- 58.3 60.6----
2024-04-15 01:42 pmNNE 4.1 8.0----30.20- 58.1 60.6----
2024-04-15 01:36 pm N 6.0 8.0----30.20- 57.7 60.4----
2024-04-15 01:30 pm N 5.1 7.0----30.20- 57.7 60.4----
2024-04-15 01:24 pm N 5.1 8.0----30.20- 57.7 60.4----
2024-04-15 01:18 pm N 5.1 7.0----30.21- 57.6 60.4----
2024-04-15 01:12 pm N 4.1 8.0----30.21- 57.9 60.3----
2024-04-15 01:06 pm N 4.1 6.0----30.21- 57.9 60.3----
2024-04-15 01:00 pm NE 2.9 7.0----30.21+0.00 57.7 60.3----
2024-04-15 12:54 pmENE 4.1 5.1----30.21- 58.1 60.3----
2024-04-15 12:48 pm NE 1.9 7.0----30.21- 58.1 60.3----
2024-04-15 12:42 pm NE 2.9 5.1----30.21- 57.7 60.3----
2024-04-15 12:36 pmENE 4.1 5.1----30.21- 57.9 60.1----
2024-04-15 12:30 pm NE 1.9 5.1----30.21- 57.6 60.1----
2024-04-15 12:24 pmENE 2.9 5.1----30.22- 57.6 60.1----
2024-04-15 12:18 pmENE 1.9 4.1----30.22- 57.6 60.1----
2024-04-15 12:12 pm- 0.0 2.9----30.22- 57.7 60.1----
2024-04-15 12:06 pmNNW 1.0 2.9----30.22- 56.8 60.1----
2024-04-15 12:00 pm N 4.1 5.1----30.22+0.01 55.9 60.1----
2024-04-15 11:54 am N 4.1 6.0----30.22- 55.9 60.1----
2024-04-15 11:48 amENE 1.9 4.1----30.22- 57.0 60.1----
2024-04-15 11:42 am SE 1.9 2.9----30.22- 56.8 60.1----
2024-04-15 11:36 amENE 2.9 5.1----30.22- 56.1 59.9----
2024-04-15 11:30 am- 0.0 4.1----30.22- 55.8 59.9----
2024-04-15 11:24 am NE 1.9 4.1----30.22- 55.2 59.9----
2024-04-15 11:18 am N 1.9 4.1----30.22- 55.6 59.9----
2024-04-15 11:12 amNNW 1.9 2.9----30.22- 55.2 59.9----
2024-04-15 11:00 amNNW 2.9 4.1----30.22+0.02 54.5 59.9----
2024-04-15 10:54 amNNW 1.9 4.1----30.23- 54.7 59.9----
2024-04-15 10:48 am N 1.0 2.9----30.23- 54.9 59.9----
2024-04-15 10:30 am- 0.0 2.9----30.22- 54.5 59.9----
2024-04-15 10:24 amWNW 1.9 2.9----30.22- 54.3 59.9----
2024-04-15 10:12 am- 0.0 2.9----30.22- 54.0 59.9----
2024-04-15 10:06 amNNW 2.9 4.1----30.22- 53.8 59.9----
2024-04-15 10:00 am NW 1.0 2.9----30.22+0.04 54.0 59.9----
2024-04-15 09:54 am NW 1.0 2.9----30.22- 53.8 60.1----
2024-04-15 09:48 amWNW 1.9 2.9----30.22- 53.8 59.9----
2024-04-15 09:42 am W 2.9 2.9----30.22- 53.4 59.9----
2024-04-15 09:36 am- 0.0 1.9----30.21- 53.4 60.1----
2024-04-15 09:30 amSSW 1.0 4.1----30.21- 53.2 59.9----
2024-04-15 09:24 amWSW 4.1 5.1----30.21- 53.1 59.9----
2024-04-15 09:18 am W 2.9 5.1----30.21- 52.9 59.9----
2024-04-15 09:12 am W 4.1 5.1----30.21- 52.9 59.9----
2024-04-15 09:06 am W 2.9 5.1----30.21- 52.7 59.9----
2024-04-15 09:00 am W 4.1 5.1----30.21+0.06 52.9 59.9----
2024-04-15 08:54 am W 5.1 6.0----30.21- 52.7 60.1----
2024-04-15 08:48 am W 5.1 6.0----30.21- 52.7 60.1----
2024-04-15 08:42 am W 6.0 7.0----30.22- 52.7 60.1----
2024-04-15 08:36 am W 7.0 7.0----30.22- 52.5 60.1----
2024-04-15 08:30 am W 7.0 8.0----30.21- 52.5 60.1----
2024-04-15 08:24 am W 7.0 8.0----30.21- 52.5 60.1----
2024-04-15 08:18 am W 7.0 8.0----30.21- 52.5 60.1----
2024-04-15 08:12 am W 7.0 8.0----30.21- 52.5 60.1----
2024-04-15 08:06 am W 7.0 8.0----30.21- 52.9 60.1----
2024-04-15 08:00 am W 7.0 8.9----30.20+0.06 52.7 60.1----
2024-04-15 07:54 am W 8.0 8.9----30.20- 52.5 60.1----
2024-04-15 07:48 am W 6.0 7.0----30.19- 52.3 60.1----
2024-04-15 07:42 am W 4.1 5.1----30.19- 52.7 60.1----
2024-04-15 07:36 amWSW 4.1 5.1----30.19- 52.5 60.1----
2024-04-15 07:30 amWSW 4.1 4.1----30.18-- 60.1----
2024-04-15 07:24 amSSW 1.9 2.9----30.18-- 60.1----
2024-04-15 07:18 amSSW 2.9 4.1----30.17- 52.2 60.1----
2024-04-15 07:12 amWSW 2.9 4.1----30.17- 52.0 60.1----
2024-04-15 07:06 am W 4.1 6.0----30.17- 52.0 60.1----
2024-04-15 07:00 amWNW 5.1 6.0----30.18+0.04 51.6 60.1----
2024-04-15 06:54 amWNW 5.1 6.0----30.18- 52.0 60.1----